Chattanooga, TN

2:40 PM EDT on April 23, 2018 (GMT -0400)
Lovell

Weather History for KCHA - July, 2014

Change the Weather History Date:

Monday, July 14, 2014

  Actual Average Record
Temperature  
Mean Temperature 84 °F 80 °F  
Max Temperature 94 °F 90 °F 103 °F (1954)
Min Temperature 73 °F 70 °F 56 °F (1967)
Cooling Degree Days 19 15  
Month to date cooling degree days 208 206  
Year to date cooling degree days 867 747  
Since 1 June cooling degree days 609 551  
Growing Degree Days 33 (Base 50)    
Moisture  
Dew Point 69 °F    
Average Humidity 62    
Maximum Humidity 82    
Minimum Humidity 41    
Precipitation  
Precipitation 0.03 in 0.18 in 4.61 in (1949)
Month to date precipitation 0.51 2.23  
Year to date precipitation 22.79 29.10  
Snow  
Snow 0.00 in - - ()
Month to date snowfall 0.0  
Since 1 June snowfall 0.0  
Snow Depth 0.00 in    
Sea Level Pressure  
Sea Level Pressure 29.96 in    
Wind  
Wind Speed 6 mph (SSW)    
Max Wind Speed 17 mph    
Max Gust Speed 24 mph    
Visibility 10 miles    
Events Rain , Thunderstorm    
T = Trace of Precipitation, MM = Missing Value Source: NWS Daily Summary

Daily Weather History Graph

Daily Weather History Graph

Search for Another Location

Airport or City:

Astronomy

Jul. 14, 2014 Rise Set
Actual Time 6:37 AM EDT 8:55 PM EDT
Civil Twilight 6:08 AM EDT 9:24 PM EDT
Nautical Twilight 5:32 AM EDT 10:00 PM EDT
Astronomical Twilight 4:53 AM EDT 10:38 PM EDT
Moon 10:34 PM EDT (7/14) 9:11 AM EDT (7/14)
Length of Visible Light 15h 16m
Length of Day
14h 18m
Waning Gibbous, 93% of the Moon is Illuminated
Jul 14
Waning Gibbous
Jul 18
Last Quarter
Jul 26
New
Aug 3
First Quarter
Aug 10
Full

Hourly Weather History & Observations

Time (EDT) Temp. Heat Index Dew Point Humidity Pressure Visibility Wind Dir Wind Speed Gust Speed Precip Events Conditions
12:53 AM 78.1 °F - 71.1 °F 79% 30.02 in 10.0 mi Calm Calm - N/A   Clear
1:53 AM 77.0 °F - 71.6 °F 83% 30.04 in 10.0 mi Calm Calm - N/A   Clear
2:53 AM 77.0 °F - 70.0 °F 79% 30.00 in 10.0 mi South 4.6 mph - N/A   Partly Cloudy
3:53 AM 75.9 °F - 70.0 °F 82% 30.00 in 10.0 mi Calm Calm - N/A   Clear
4:53 AM 75.9 °F - 70.0 °F 82% 29.99 in 10.0 mi South 3.5 mph - N/A   Clear
5:53 AM 75.0 °F - 70.0 °F 84% 30.00 in 10.0 mi Calm Calm - N/A   Scattered Clouds
6:53 AM 75.0 °F - 70.0 °F 84% 30.01 in 9.0 mi Calm Calm - N/A   Scattered Clouds
7:53 AM 75.9 °F - 70.0 °F 82% 30.01 in 9.0 mi SSW 3.5 mph - N/A   Scattered Clouds
8:53 AM 80.1 °F 82.9 °F 69.1 °F 69% 30.02 in 10.0 mi South 5.8 mph - N/A   Mostly Cloudy
9:53 AM 82.9 °F 87.0 °F 70.0 °F 65% 30.03 in 10.0 mi Variable 3.5 mph - N/A   Scattered Clouds
10:53 AM 84.9 °F 90.1 °F 71.1 °F 63% 30.02 in 10.0 mi WNW 3.5 mph - N/A   Mostly Cloudy
11:53 AM 84.9 °F 90.1 °F 71.1 °F 63% 30.01 in 10.0 mi SSW 8.1 mph - N/A   Mostly Cloudy
12:53 PM 89.1 °F 93.7 °F 69.1 °F 52% 29.99 in 10.0 mi SSW 10.4 mph - N/A   Mostly Cloudy
1:53 PM 91.9 °F 96.9 °F 69.1 °F 47% 29.95 in 10.0 mi West 10.4 mph - N/A   Mostly Cloudy
2:53 PM 91.4 °F 94.0 °F 66.2 °F 43% 29.96 in 10.0 mi WSW 13.8 mph - N/A   Mostly Cloudy
3:53 PM 93.2 °F 96.2 °F 66.2 °F 41% 29.93 in 10.0 mi SW 11.5 mph - N/A   Mostly Cloudy
4:53 PM 93.9 °F 98.6 °F 68.0 °F 43% 29.89 in 10.0 mi SSW 10.4 mph - N/A   Mostly Cloudy
5:53 PM 93.2 °F 97.7 °F 68.0 °F 44% 29.91 in 10.0 mi SW 11.5 mph - N/A   Scattered Clouds
6:53 PM 91.9 °F 95.4 °F 66.9 °F 44% 29.87 in 10.0 mi SW 12.7 mph - N/A   Scattered Clouds
7:53 PM 90.0 °F 92.8 °F 66.9 °F 46% 29.87 in 10.0 mi SW 6.9 mph - N/A   Scattered Clouds
8:53 PM 88.0 °F 92.1 °F 69.1 °F 53% 29.89 in 10.0 mi SSE 4.6 mph - N/A   Mostly Cloudy
9:06 PM 86.0 °F 92.2 °F 72.0 °F 63% 29.90 in 10.0 mi SSE 6.9 mph - N/A Thunderstorm Thunderstorm
9:36 PM 82.0 °F 84.1 °F 66.0 °F 58% 29.95 in 9.0 mi NNW 16.1 mph - N/A Thunderstorm Thunderstorm
9:53 PM 80.1 °F 81.9 °F 64.9 °F 60% 29.92 in 9.0 mi NW 16.1 mph - N/A Thunderstorm Thunderstorm
10:28 PM 73.0 °F - 69.1 °F 87% 29.95 in 3.0 mi SSE 11.5 mph - 0.03 in Rain , Thunderstorm Thunderstorms and Rain
10:44 PM 73.0 °F - 69.1 °F 87% 29.94 in 10.0 mi South 6.9 mph - 0.03 in Rain Light Rain
10:53 PM 73.9 °F - 69.1 °F 85% 29.91 in 10.0 mi South 6.9 mph - 0.03 in Rain Light Rain
11:53 PM 75.0 °F - 70.0 °F 84% 29.93 in 10.0 mi Calm Calm - 0.00 in   Mostly Cloudy